Location: Unspecified
(0.0000°N, 0.0000°E)
Time: 12:53:44
(UTC+01:00)

ARIANE 5 R/B - Visible Passes

Search period start: 01 November 2014 00:00
Search period end: 11 November 2014 00:00
Orbit: 572 x 35557 km, 5.0° (Epoch: 31 October)

Date Brightness Start Highest point End Pass type
(mag) Time Alt. Az. Time Alt. Az. Time Alt. Az.
01 Nov 6.7 00:00:00 62° W 05:01:56 80° S 05:13:58 10° E visible
01 Nov 8.0 16:11:46 10° W 00:27:42 88° ENE 02:10:34 10° E visible
02 Nov 5.8 13:11:32 10° W 13:16:14 88° N 13:43:52 10° E visible
04 Nov 5.1 06:31:24 10° W 07:11:22 67° S 07:16:40 10° ESE visible
04 Nov 7.8 18:16:59 10° W 21:13:47 85° N 04:16:14 10° E visible
05 Nov 7.3 15:14:08 10° W 15:24:28 82° N 01:10:42 10° E visible
06 Nov 9.4 17:33:57 10° E 20:17:47 24° E 21:38:29 10° E visible
07 Nov 5.7 20:28:21 10° W 06:12:20 72° S 06:19:19 10° ESE visible
08 Nov 7.9 17:18:12 10° W 22:05:04 87° N 03:18:08 10° E visible
09 Nov 6.7 14:16:37 10° W 14:24:10 82° N 00:09:27 10° E visible
10 Nov 9.7 18:37:53 10° E 19:21:06 12° E 19:55:21 10° E visible
10 Nov 10.3 23:06:07 10° W 00:00:00 19° W 00:00:00 19° W visible
